Regional Weather Roundup
Issued by NWS Tiyan, Guam

Home | Current Version | Previous Version | Text Only | Print | Product List | Glossary On
Versions: 1 2 3 4 5 6 7 8 9 10 11 12 13 14 15 16 17 18 19 20 21 22 23 24 25 26 27 28
000
ASGM40 PGUM 190312
RWRGUM
WEATHER ROUNDUP FOR THE MARIANAS
NATIONAL WEATHER SERVICE TIYAN GU
100 PM CHST SUN NOV 19 2017

GUZ001>004-190400-
MARIANA ISLANDS-

CITY           SKY/WX    TMP DP  RH WIND       PRES   REMARKS
GUAM AIRPORT   MOSUNNY   90  75  62 E13       29.85F HX 100
ANDERSEN AFB   MOSUNNY   86  77  74 NE13      29.86F HX  97
ROTA AIRPORT   MOSUNNY   84  75  74 E12       29.85F HX  92
TINIAN AP      MOSUNNY   84  75  74 NE13      29.83F HX  92
SAIPAN AP      MOSUNNY   88  77  70 E13       29.84F HX 100

$$





USA.gov is the U.S. government's official web portal to all federal, state and local government web resources and services.